TimeCST,TemperatureF,Dew PointF,Humidity,Sea Level PressureIn,VisibilityMPH,Wind Direction,Wind SpeedMPH,Gust SpeedMPH,PrecipitationIn,Events,Conditions,WindDirDegrees,DateUTC
12:53 AM,46.0,39.9,79,30.19,10.0,SSE,4.6,-,N/A,,Clear,150,2013-11-04 06:53:00
1:53 AM,46.9,39.9,77,30.18,10.0,SSE,6.9,-,N/A,,Clear,150,2013-11-04 07:53:00
2:53 AM,46.9,39.9,77,30.19,10.0,SE,3.5,-,N/A,,Clear,140,2013-11-04 08:53:00
3:53 AM,46.0,39.9,79,30.17,10.0,SSE,4.6,-,N/A,,Clear,160,2013-11-04 09:53:00
4:53 AM,46.0,41.0,83,30.22,10.0,SSE,3.5,-,N/A,,Clear,150,2013-11-04 10:53:00
5:53 AM,46.0,41.0,83,30.22,10.0,SE,4.6,-,N/A,,Clear,140,2013-11-04 11:53:00
6:53 AM,48.9,42.1,77,30.23,10.0,SSE,6.9,-,N/A,,Clear,150,2013-11-04 12:53:00
7:53 AM,52.0,42.1,69,30.27,10.0,SSE,6.9,-,N/A,,Clear,160,2013-11-04 13:53:00
8:53 AM,54.0,43.0,66,30.28,10.0,South,10.4,-,N/A,,Clear,170,2013-11-04 14:53:00
9:53 AM,55.0,43.0,64,30.27,10.0,South,10.4,-,N/A,,Clear,170,2013-11-04 15:53:00
10:53 AM,59.0,43.0,55,30.26,10.0,South,10.4,-,N/A,,Clear,170,2013-11-04 16:53:00
11:53 AM,60.1,45.0,57,30.23,10.0,South,11.5,-,N/A,,Clear,170,2013-11-04 17:53:00
12:53 PM,62.1,45.0,53,30.21,10.0,South,9.2,-,N/A,,Clear,190,2013-11-04 18:53:00
1:53 PM,64.0,43.0,46,30.20,10.0,SSW,11.5,-,N/A,,Clear,200,2013-11-04 19:53:00
2:53 PM,64.0,44.1,48,30.21,10.0,South,9.2,-,N/A,,Clear,180,2013-11-04 20:53:00
3:53 PM,63.0,46.0,54,30.21,10.0,Calm,Calm,-,N/A,,Clear,0,2013-11-04 21:53:00
4:53 PM,60.1,46.0,60,30.22,10.0,South,3.5,-,N/A,,Clear,170,2013-11-04 22:53:00
5:53 PM,57.0,46.9,69,30.23,10.0,Calm,Calm,-,N/A,,Clear,0,2013-11-04 23:53:00
6:53 PM,54.0,46.9,77,30.23,10.0,East,4.6,-,N/A,,Clear,100,2013-11-05 00:53:00
7:53 PM,55.0,48.0,77,30.23,10.0,Calm,Calm,-,N/A,,Clear,0,2013-11-05 01:53:00
8:53 PM,57.0,46.9,69,30.24,10.0,SSE,6.9,-,N/A,,Clear,150,2013-11-05 02:53:00
9:53 PM,57.9,46.0,65,30.24,10.0,SE,9.2,-,N/A,,Clear,140,2013-11-05 03:53:00
10:53 PM,55.9,46.9,72,30.25,10.0,SSE,6.9,-,N/A,,Partly Cloudy,160,2013-11-05 04:53:00
11:53 PM,54.0,46.9,77,30.25,10.0,South,3.5,-,N/A,,Clear,170,2013-11-05 05:53:00